• In Österreich
  • Länderverzeichnis
  • Für 7 Tage
  • Wassertemperatur
  • Satellitenkarten
  • Wetterkarte
  • News
  • Widgets
  • user-avatar
    Anmelden

    Stündliche Wetter Ondjiwa

    Heute, 19 November, Sonntag

    Zeit Temperatur Niederschläge Wind Luftdruck Luftfeuchtigkeit
    00:00 +28°C° 0 mm 2 m/S 666 mmHg 20%
    01:00 +28°C° 0 mm 2 m/S 666 mmHg 20%
    02:00 +27°C° 0 mm 2 m/S 666 mmHg 21%
    03:00 +27°C° 0 mm 2 m/S 666 mmHg 22%
    04:00 +26°C° 0 mm 2 m/S 666 mmHg 23%
    05:00 +27°C° 0 mm 2 m/S 666 mmHg 23%
    06:00 +27°C° 0 mm 2 m/S 667 mmHg 22%
    07:00 +28°C° 0 mm 2 m/S 667 mmHg 22%
    08:00 +30°C° 0 mm 2 m/S 668 mmHg 19%
    09:00 +34°C° 0 mm 2 m/S 668 mmHg 17%
    10:00 +37°C° 0 mm 2 m/S 668 mmHg 15%
    11:00 +37°C° 0 mm 2 m/S 668 mmHg 14%
    12:00 +38°C° 0 mm 2 m/S 668 mmHg 12%
    13:00 +39°C° 0 mm 2 m/S 667 mmHg 11%
    14:00 +39°C° 0 mm 2 m/S 667 mmHg 12%
    15:00 +38°C° 0 mm 3 m/S 666 mmHg 12%
    16:00 +38°C° 0 mm 3 m/S 666 mmHg 12%
    17:00 +36°C° 0 mm 3 m/S 666 mmHg 14%
    18:00 +35°C° 0 mm 3 m/S 665 mmHg 16%
    19:00 +33°C° 0 mm 3 m/S 665 mmHg 19%
    20:00 +31°C° 0 mm 3 m/S 666 mmHg 20%
    21:00 +30°C° 0 mm 3 m/S 666 mmHg 22%
    22:00 +29°C° 0 mm 2 m/S 666 mmHg 23%
    23:00 +29°C° 0 mm 3 m/S 666 mmHg 23%

    Morgen, 20 November, Montag

    Zeit Temperatur Niederschläge Wind Luftdruck Luftfeuchtigkeit
    00:00 +29°C° 0 mm 4 m/S 666 mmHg 24%
    01:00 +29°C° 0 mm 4 m/S 666 mmHg 24%
    02:00 +28°C° 0 mm 4 m/S 666 mmHg 23%
    03:00 +27°C° 0 mm 4 m/S 666 mmHg 22%
    04:00 +26°C° 0 mm 4 m/S 665 mmHg 22%
    05:00 +27°C° 0 mm 3 m/S 666 mmHg 21%
    06:00 +27°C° 0 mm 3 m/S 667 mmHg 20%
    07:00 +28°C° 0 mm 2 m/S 667 mmHg 19%
    08:00 +30°C° 0 mm 2 m/S 668 mmHg 16%
    09:00 +32°C° 0 mm 2 m/S 668 mmHg 13%
    10:00 +36°C° 0 mm 2 m/S 669 mmHg 11%
    11:00 +37°C° 0 mm 2 m/S 668 mmHg 10%
    12:00 +39°C° 0 mm 2 m/S 668 mmHg 10%
    13:00 +40°C° 0 mm 1 m/S 667 mmHg 10%
    14:00 +40°C° 0 mm 1 m/S 667 mmHg 10%
    15:00 +39°C° 0 mm 2 m/S 666 mmHg 10%
    16:00 +39°C° 0 mm 2 m/S 665 mmHg 10%
    17:00 +37°C° 0 mm 2 m/S 666 mmHg 11%
    18:00 +36°C° 0 mm 2 m/S 666 mmHg 12%
    19:00 +34°C° 0 mm 1 m/S 666 mmHg 13%
    20:00 +34°C° 0 mm 2 m/S 666 mmHg 15%
    21:00 +33°C° 0 mm 3 m/S 667 mmHg 16%
    22:00 +33°C° 0 mm 4 m/S 667 mmHg 18%
    23:00 +30°C° 0 mm 4 m/S 667 mmHg 20%

    übermorgen, 21 November, Dienstag

    Zeit Temperatur Niederschläge Wind Luftdruck Luftfeuchtigkeit
    00:00 +29°C° 0 mm 4 m/S 667 mmHg 21%
    01:00 +28°C° 0 mm 3 m/S 666 mmHg 23%
    02:00 +27°C° 0 mm 3 m/S 666 mmHg 24%
    03:00 +26°C° 0 mm 3 m/S 666 mmHg 26%
    04:00 +25°C° 0 mm 2 m/S 666 mmHg 27%
    05:00 +26°C° 0 mm 3 m/S 667 mmHg 26%
    06:00 +27°C° 0 mm 3 m/S 667 mmHg 24%
    07:00 +27°C° 0 mm 4 m/S 668 mmHg 23%
    08:00 +30°C° 0 mm 4 m/S 668 mmHg 20%
    09:00 +33°C° 0 mm 4 m/S 668 mmHg 18%
    10:00 +35°C° 0 mm 5 m/S 669 mmHg 15%
    11:00 +36°C° 0 mm 5 m/S 668 mmHg 14%
    12:00 +37°C° 0 mm 5 m/S 668 mmHg 13%
    13:00 +39°C° 0 mm 5 m/S 667 mmHg 12%
    14:00 +39°C° 0 mm 5 m/S 666 mmHg 12%
    15:00 +39°C° 0 mm 5 m/S 666 mmHg 12%
    16:00 +39°C° 0 mm 5 m/S 665 mmHg 12%
    17:00 +36°C° 0 mm 4 m/S 665 mmHg 13%
    18:00 +34°C° 0 mm 3 m/S 665 mmHg 15%
    19:00 +32°C° 0 mm 2 m/S 665 mmHg 17%
    20:00 +31°C° 0 mm 3 m/S 666 mmHg 17%
    21:00 +32°C° 0 mm 4 m/S 666 mmHg 18%
    22:00 +32°C° 0 mm 5 m/S 667 mmHg 19%
    23:00 +29°C° 0 mm 5 m/S 667 mmHg 21%

    22 November, Mittwoch

    Zeit Temperatur Niederschläge Wind Luftdruck Luftfeuchtigkeit
    00:00 +28°C° 0 mm 5 m/S 666 mmHg 23%
    01:00 +27°C° 0 mm 5 m/S 666 mmHg 24%
    02:00 +26°C° 0 mm 4 m/S 666 mmHg 26%
    03:00 +26°C° 0 mm 4 m/S 666 mmHg 27%
    04:00 +25°C° 0 mm 3 m/S 666 mmHg 28%
    05:00 +26°C° 0 mm 3 m/S 666 mmHg 27%
    06:00 +26°C° 0 mm 3 m/S 667 mmHg 26%
    07:00 +27°C° 0 mm 3 m/S 668 mmHg 25%
    08:00 +29°C° 0 mm 4 m/S 668 mmHg 22%
    09:00 +33°C° 0 mm 4 m/S 668 mmHg 19%
    10:00 +35°C° 0 mm 4 m/S 668 mmHg 17%
    11:00 +36°C° 0 mm 4 m/S 668 mmHg 16%
    12:00 +37°C° 0 mm 4 m/S 667 mmHg 15%
    13:00 +38°C° 0 mm 4 m/S 666 mmHg 14%
    14:00 +38°C° 0 mm 4 m/S 666 mmHg 14%
    15:00 +38°C° 0 mm 4 m/S 665 mmHg 14%
    16:00 +37°C° 0 mm 4 m/S 665 mmHg 14%
    17:00 +36°C° 0 mm 4 m/S 665 mmHg 15%
    18:00 +34°C° 0 mm 3 m/S 665 mmHg 17%
    19:00 +32°C° 0 mm 2 m/S 665 mmHg 18%
    20:00 +31°C° 0 mm 3 m/S 666 mmHg 19%
    21:00 +31°C° 0 mm 3 m/S 666 mmHg 19%
    22:00 +30°C° 0 mm 3 m/S 666 mmHg 20%
    23:00 +29°C° 0 mm 3 m/S 666 mmHg 21%

    23 November, Donnerstag

    Zeit Temperatur Niederschläge Wind Luftdruck Luftfeuchtigkeit
    00:00 +28°C° 0 mm 2 m/S 665 mmHg 22%
    01:00 +27°C° 0 mm 2 m/S 665 mmHg 23%
    02:00 +26°C° 0 mm 2 m/S 665 mmHg 22%
    03:00 +25°C° 0 mm 2 m/S 665 mmHg 22%
    04:00 +25°C° 0 mm 2 m/S 665 mmHg 22%
    05:00 +26°C° 0 mm 2 m/S 666 mmHg 21%
    06:00 +27°C° 0 mm 2 m/S 666 mmHg 20%
    07:00 +28°C° 0 mm 2 m/S 667 mmHg 19%
    08:00 +30°C° 0 mm 2 m/S 667 mmHg 17%
    09:00 +33°C° 0 mm 3 m/S 667 mmHg 16%
    10:00 +35°C° 0 mm 3 m/S 668 mmHg 14%
    11:00 +36°C° 0 mm 3 m/S 667 mmHg 13%
    12:00 +37°C° 0 mm 3 m/S 666 mmHg 13%
    13:00 +38°C° 0 mm 2 m/S 666 mmHg 12%
    14:00 +38°C° 0 mm 2 m/S 665 mmHg 13%
    15:00 +38°C° 0 mm 2 m/S 665 mmHg 13%
    16:00 +38°C° 0 mm 2 m/S 664 mmHg 14%
    17:00 +36°C° 0 mm 3 m/S 664 mmHg 17%
    18:00 +35°C° 0 mm 3 m/S 665 mmHg 20%
    19:00 +33°C° 0 mm 3 m/S 665 mmHg 23%
    20:00 +30°C° 0,1 mm 3 m/S 665 mmHg 32%
    21:00 +28°C° 0,1 mm 4 m/S 665 mmHg 41%
    22:00 +27°C° 0,1 mm 4 m/S 665 mmHg 51%
    23:00 +26°C° 0 mm 4 m/S 665 mmHg 50%

    24 November, Freitag

    Zeit Temperatur Niederschläge Wind Luftdruck Luftfeuchtigkeit
    00:00 +26°C° 0 mm 3 m/S 665 mmHg 50%
    01:00 +26°C° 0 mm 2 m/S 665 mmHg 50%
    02:00 +25°C° 0 mm 2 m/S 665 mmHg 50%
    03:00 +25°C° 0 mm 2 m/S 665 mmHg 51%
    04:00 +24°C° 0 mm 2 m/S 665 mmHg 51%
    05:00 +25°C° 0 mm 2 m/S 665 mmHg 49%
    06:00 +26°C° 0 mm 3 m/S 666 mmHg 47%
    07:00 +26°C° 0 mm 3 m/S 666 mmHg 45%
    08:00 +29°C° 0 mm 3 m/S 666 mmHg 38%
    09:00 +31°C° 0 mm 3 m/S 667 mmHg 31%
    10:00 +34°C° 0 mm 3 m/S 667 mmHg 25%
    11:00 +35°C° 0 mm 2 m/S 666 mmHg 23%
    12:00 +37°C° 0 mm 2 m/S 666 mmHg 21%
    13:00 +37°C° 0 mm 1 m/S 665 mmHg 19%
    14:00 +36°C° 0 mm 1 m/S 665 mmHg 19%
    15:00 +37°C° 0 mm 2 m/S 664 mmHg 20%
    16:00 +36°C° 0 mm 2 m/S 663 mmHg 20%
    17:00 +35°C° 0 mm 2 m/S 664 mmHg 23%
    18:00 +34°C° 0 mm 2 m/S 664 mmHg 25%
    19:00 +33°C° 0 mm 3 m/S 664 mmHg 28%
    20:00 +31°C° 0 mm 3 m/S 665 mmHg 28%
    21:00 +30°C° 0 mm 3 m/S 665 mmHg 29%
    22:00 +30°C° 0 mm 3 m/S 665 mmHg 29%
    23:00 +29°C° 0 mm 3 m/S 665 mmHg 27%
    Mehr zeigen